Regional Weather Roundup
Issued by NWS Charleston, SC

Current Version | Previous Version | Graphics & Text | Print | Product List | Glossary On
Versions: 1 2 3 4 5 6 7 8 9 10 11 12 13 14 15 16 17 18 19 20 21 22 23 24 25 26 27 28 29 30 31 32 33 34 35 36 37 38 39 40 41 42 43 44 45 46 47 48 49 50
000 ASUS42 KCHS 010425 RWRCHS REGIONAL WEATHER ROUNDUP NATIONAL WEATHER SERVICE CHARLESTON SC 1200 AM EDT SAT NOV 01 2014 NOTE: "FAIR" INDICATES FEW OR NO CLOUDS BELOW 12,000 FEET WITH NO SIGNIFICANT WEATHER AND/OR OBSTRUCTIONS TO VISIBILITY. NOT ALL STATIONS ARE QUALITY CONTROLLED BY THE NATIONAL WEATHER SERVICE. USE DATA WITH CAUTION...ESPECIALLY DEWPOINT OBSERVATIONS. SCZ027-030-031-034>040-042>050-010500- ...SOUTH CAROLINA... CITY SKY/WX TMP DP RH WIND PRES REMARKS N CHARLESTON MOCLDY 56 52 86 W5 29.78F WATERFRONT PRK N/A 59 N/A N/A W6 N/A FORT JOHNSON NOT AVBL JOHNS ISLAND PTCLDY 55 54 94 CALM 29.78F PINOPOLIS NOT AVBL MONCKS CORNER FAIR 54 54 100 CALM 29.76F FOG SUMMERVILLE FAIR 52 52 100 CALM 29.78F BEAUFORT MCAS N/A N/A N/A N/A MISG 29.79F BEAUFORT ARPT FAIR 59 50 72 W9 29.79F HILTON HEAD IS PTCLDY 59 46 63 W7 29.81F GEORGETOWN NOT AVBL WALTERBORO PTCLDY 52 N/A N/A CALM 29.79F FOG ORANGEBURG CLOUDY 54 51 90 CALM 29.78F BARNWELL FAIR 52 48 87 W7 29.80F AIKEN CLOUDY 54 45 71 W9 29.82F MANNING CLOUDY 54 N/A N/A CALM 29.75F KINGSTREE NOT AVBL COLUMBIA LGT RAIN 56 49 77 SW6 29.76F SUMTER CLOUDY 53 52 97 S3 29.74F FLORENCE CLOUDY 56 47 71 SW7 29.76F MYRTLE BEACH MOCLDY 52 46 82 CALM 29.75F N MYRTLE BEACH CLEAR 51 47 86 CALM 29.76F $$ GAZ063-065-086>088-099>101-113>116-118-119-134-136>141-150-010500- ...GEORGIA... CITY SKY/WX TMP DP RH WIND PRES REMARKS SAVANNAH ARPT PTCLDY 58 43 57 W6 29.82F HUNTER AAF CLEAR 56 45 66 W7 29.80F FORT STEWART CLEAR 56 43 61 W6 29.82F STATESBORO NOT AVBL SYLVANIA CLEAR 59 51 75 W6 29.82F CLAXTON FAIR 55 45 67 W5 29.84S THOMSON CLEAR 53 48 82 W8 29.87S AUGUSTA-BUSH CLEAR 55 41 59 W13 29.81F AUGUSTA-DANIEL CLEAR 55 42 61 W8G17 29.81F SWAINSBORO FAIR 55 46 71 NW6 29.85S VIDALIA CLEAR 54 45 71 W5 29.85F ALMA PTCLDY 57 42 57 W9 29.87S WAYCROSS PTCLDY 60 47 62 NW8 29.87S JESUP FAIR 55 46 71 NW6 29.85F BRUNSWICK CLEAR 55 43 62 W5 29.85F SAINT SIMONS CLEAR 59 43 55 NW5 29.84F $$ SCZ027-028-034-036>038-045-046-048>050-GAZ119-141-010500- ...LAKE AND SUPPLEMENTAL COASTAL OBSERVATIONS... STATION/POSITION TIME TEMP WIND PRES WAVE SWELL AIR SEA DIR/SP/G HT/PER HT/PER/DIR (UTC) (F) (DEG/KT/KT) (MB) (FT/S) (FT/S/D) UPR LAKE MARION NOT AVBL WINYAH BAY 0400 53 270/ 1 1008.0S LAKE MURRAY 0300 58 280/ 12/ 15 1007.5F ACE BASIN NERRS 0400 53 CALM 1008.0S FORT PULASKI 0400 62 290/ 15/ 18 1009.7F SAPELO ISLAND NOT AVBL $$ ANZ835-935-AMZ111-154-330-350-352-354-374-450-454-472-010500- ...C-MAN AND BUOY OBSERVATIONS... STATION/POSITION TIME TEMP WIND PRES WAVE SWELL AIR SEA DIR/SP/G HT/PER HT/PER/DIR (UTC) (F) (DEG/KT/KT) (MB) (FT/S) (FT/S/D) FOLLY BEACH CMAN 0400 57 320/ 3/ 5 1008.6F BUOY 41004 0400 66 76 270/ 4/ 8 1007.9F 4/ 7 3/ 7 BUOY 41008 0400 67 74 310/ 23/ 27 1009.1F 4/ 4 2/ 80/ 7 5E ST. MARYS GA 0400 75 N/A 3/ 7 FRYING PAN BUOY 0400 63 73 50/ 4/ 6 1008.1F 3/ 8 3/ 90/ 8 BUOY 41025 0400 62 340/ 21/ 27 1005.3F 5/ 6 CAPE LOOKOUT NC 0400 56 360/ 12/ 15 1007.1F BUOY 41002 0307 71 77 280/ 12/ 14 1005.7F 4/ 8 3/ 40/ 8 BUOY 41010 0400 75 82 290/ 17/ 21 1009.4R 5/ 6 2/ 90/ 8 BUOY 41012 NOT AVBL ST AUGUSTINE FL 0400 60 260/ 6/ 9 1011.9F CAPERS NEARSHORE 0300 65 300/ 14/ 21 N/A FRIPP NEARSHORE NOT AVBL $$

USA.gov is the U.S. government's official web portal to all federal, state and local government web resources and services.